Volver al catálogo

CZ-6A DEB

ActivoSSO
NORAD 54562·DEBRIS·🇨🇳 China

Lanzado Nov 11, 2022 desde Taiyuan Satellite Launch Center

Loading…

Próximos Pases (próximas 24 horas)

TLE

ActualizadoSource: Space-Track

Época: Sep 13, 2026, 00:47 UTC

1 54562U 22151LN  26256.03317976  .00000771  00000-0  29730-3 0  9999
2 54562  98.6924 285.7327 0062614  64.6845 296.0806 14.32026639199880

Sigue CZ-6A DEB en tiempo real con AllMySat

Download on the App Store